Arctic Village, AK

1:11 AM AKDT on May 30, 2017 (GMT -0800)
Arctic Village

Weather History for PARC - February, 2013

Change the Weather History Date:

Friday, February 15, 2013

  Actual Average Record
Temperature  
Mean Temperature 2 °F -  
Max Temperature 6 °F -4 °F 25 °F (1991)
Min Temperature -2 °F -26 °F -58 °F (1971)
Degree Days  
Heating Degree Days 63    
Moisture  
Dew Point -4 °F    
Average Humidity 75    
Maximum Humidity 100    
Minimum Humidity 28    
Precipitation  
Precipitation 0.00 in - - ()
Sea Level Pressure  
Sea Level Pressure 29.59 in    
Wind  
Wind Speed 1 mph (NE)    
Max Wind Speed 10 mph    
Max Gust Speed -    
Visibility 9 miles    
Events      
Averages and records for this station are not official NWS values.
T = Trace of Precipitation, MM = Missing Value Source: NWS Daily Summary

Daily Weather History Graph

Daily Weather History Graph

Search for Another Location

Airport or City:

Trip Planner

Search our weather history database for the weather conditions in past years. The results will help you decide how hot, cold, wet, or windy it might be!

Date:

Astronomy

Feb. 15, 2013 Rise Set
Actual Time 8:58 AM AKST 4:55 PM AKST
Civil Twilight 7:57 AM AKST 5:57 PM AKST
Nautical Twilight 6:51 AM AKST 7:02 PM AKST
Astronomical Twilight 5:47 AM AKST 8:07 PM AKST
Moon 8:27 AM AKST (2/15) 1:10 AM AKST (2/15)
Length of Visible Light 9h 59m
Length of Day
7h 56m
Waxing Crescent, 31% of the Moon is Illuminated
Feb 15
Waxing Crescent
Feb 17
First Quarter
Feb 25
Full
Mar 4
Last Quarter
Mar 11
New

Hourly Weather History & Observations

Time (AKST) Temp. Windchill Dew Point Humidity Pressure Visibility Wind Dir Wind Speed Gust Speed Precip Events Conditions
12:16 AM 1.4 °F - -7.6 °F 66% 29.47 in 10.0 mi Calm Calm - N/A   Overcast
12:36 AM 3.2 °F - - N/A% 29.46 in 10.0 mi Calm Calm - N/A   Overcast
12:56 AM 3.2 °F - -23.8 °F 28% 29.46 in 10.0 mi Calm Calm - N/A   Overcast
1:16 AM 5.0 °F -4.1 °F 5.0 °F 100% 29.46 in 10.0 mi ENE 4.6 mph - N/A   Overcast
1:36 AM 5.0 °F -4.1 °F 5.0 °F 100% 29.46 in 10.0 mi East 4.6 mph - N/A   Overcast
1:56 AM 6.8 °F -7.8 °F 1.4 °F 79% 29.47 in 10.0 mi East 10.4 mph - N/A   Overcast
2:16 AM 6.8 °F -0.1 °F 1.4 °F 79% 29.48 in 10.0 mi ENE 3.5 mph - N/A   Overcast
2:36 AM 5.0 °F -2.1 °F -2.2 °F 72% 29.48 in 10.0 mi WNW 3.5 mph - N/A   Overcast
3:16 AM 6.8 °F -4.8 °F 6.8 °F 100% 29.48 in 10.0 mi NNE 6.9 mph - N/A   Overcast
3:36 AM 6.8 °F -5.9 °F -0.4 °F 72% 29.48 in 10.0 mi NNE 8.1 mph - N/A   Overcast
3:56 AM 6.8 °F - -4.0 °F 61% 29.49 in 10.0 mi Calm Calm - N/A   Overcast
4:16 AM 6.8 °F - -2.2 °F 67% 29.49 in 10.0 mi Calm Calm - N/A   Overcast
4:36 AM 6.8 °F -0.1 °F 1.4 °F 79% 29.49 in 10.0 mi SE 3.5 mph - N/A   Overcast
4:56 AM 6.8 °F - 6.8 °F 100% 29.49 in 10.0 mi Calm Calm - N/A   Overcast
5:16 AM 6.8 °F - 6.8 °F 100% 29.49 in 10.0 mi Calm Calm - N/A   Overcast
5:36 AM 6.8 °F - 5.0 °F 92% 29.50 in 10.0 mi Calm Calm - N/A   Overcast
5:56 AM 5.0 °F - 1.4 °F 85% 29.50 in 10.0 mi Calm Calm - N/A   Overcast
6:16 AM 6.8 °F - -2.2 °F 67% 29.50 in 10.0 mi Calm Calm - N/A   Overcast
6:36 AM 6.8 °F - -2.2 °F 67% 29.50 in 10.0 mi Calm Calm - N/A   Overcast
6:56 AM 5.0 °F - -0.4 °F 78% 29.50 in 10.0 mi Calm Calm - N/A   Overcast
7:16 AM 6.8 °F - 3.2 °F 85% 29.51 in 10.0 mi Calm Calm - N/A   Overcast
7:36 AM 5.0 °F - 5.0 °F 100% 29.51 in 10.0 mi Calm Calm - N/A   Overcast
7:56 AM 5.0 °F - 5.0 °F 100% 29.52 in 10.0 mi Calm Calm - N/A   Overcast
8:16 AM 3.2 °F - -5.8 °F 66% 29.52 in 10.0 mi Calm Calm - N/A   Overcast
8:56 AM 5.0 °F - -2.2 °F 72% 29.54 in 10.0 mi Calm Calm - N/A   Overcast
9:16 AM 3.2 °F - -5.8 °F 66% 29.54 in 10.0 mi Calm Calm - N/A   Overcast
9:36 AM 3.2 °F - 1.4 °F 92% 29.55 in 10.0 mi Calm Calm - N/A   Overcast
9:56 AM 3.2 °F - 3.2 °F 100% 29.56 in 10.0 mi Calm Calm - N/A   Overcast
10:16 AM 3.2 °F - 3.2 °F 100% 29.56 in 10.0 mi Calm Calm - N/A   Mostly Cloudy
10:36 AM 5.0 °F - 5.0 °F 100% 29.56 in 10.0 mi Calm Calm - N/A   Mostly Cloudy
10:56 AM 3.2 °F - - N/A% 29.57 in 10.0 mi Calm Calm - N/A   Mostly Cloudy
11:16 AM 3.2 °F -4.2 °F -4.0 °F 72% 29.57 in 9.0 mi ENE 3.5 mph - N/A   Mostly Cloudy
11:36 AM 1.4 °F - -13.0 °F 51% 29.58 in 10.0 mi Calm Calm - N/A   Overcast
11:56 AM 1.4 °F -6.2 °F -9.4 °F 61% 29.58 in 10.0 mi NNE 3.5 mph - N/A   Overcast
12:16 PM 1.4 °F - 1.4 °F 100% 29.59 in 10.0 mi Calm Calm - N/A   Overcast
12:36 PM 3.2 °F -4.2 °F - N/A% 29.59 in 10.0 mi NE 3.5 mph - N/A   Overcast
12:56 PM 3.2 °F -4.2 °F 3.2 °F 100% 29.60 in 10.0 mi ENE 3.5 mph - N/A   Partly Cloudy
1:16 PM 3.2 °F - -7.6 °F 61% 29.61 in 10.0 mi Calm Calm - N/A   Clear
1:36 PM 3.2 °F - -9.4 °F 56% 29.61 in 10.0 mi Calm Calm - N/A   Clear
1:56 PM 3.2 °F - -5.8 °F 66% 29.62 in 10.0 mi Calm Calm - N/A   Clear
2:16 PM 5.0 °F - 3.2 °F 92% 29.63 in 10.0 mi Calm Calm - N/A   Mostly Cloudy
2:36 PM 3.2 °F - - N/A% 29.62 in 10.0 mi Calm Calm - N/A   Partly Cloudy
2:56 PM 3.2 °F - - N/A% 29.62 in 9.0 mi Calm Calm - N/A   Clear
3:16 PM 3.2 °F - -0.4 °F 85% 29.62 in 10.0 mi Calm Calm - N/A   Clear
3:36 PM 3.2 °F - -11.2 °F 51% 29.62 in 10.0 mi Calm Calm - N/A   Partly Cloudy
3:56 PM 3.2 °F - -13.0 °F 47% 29.63 in 10.0 mi Calm Calm - N/A   Clear
4:16 PM 3.2 °F - -5.8 °F 66% 29.64 in 10.0 mi Calm Calm - N/A   Clear
4:36 PM 1.4 °F - - N/A% 29.64 in 10.0 mi Calm Calm - N/A   Clear
4:56 PM 3.2 °F - 3.2 °F 100% 29.65 in 10.0 mi Calm Calm - N/A   Clear
5:16 PM 1.4 °F - -2.2 °F 85% 29.65 in 10.0 mi Calm Calm - N/A   Clear
5:36 PM 1.4 °F - -14.8 °F 47% 29.66 in 10.0 mi Calm Calm - N/A   Mostly Cloudy
5:56 PM 1.4 °F - -16.6 °F 43% 29.66 in 6.0 mi Calm Calm - N/A   Overcast
6:16 PM -0.4 °F - -0.4 °F 100% 29.66 in 5.0 mi Calm Calm - N/A   Overcast
6:36 PM -0.4 °F - - N/A% 29.66 in 5.0 mi Calm Calm - N/A   Scattered Clouds
6:56 PM -2.2 °F - -18.4 °F 46% 29.66 in 10.0 mi Calm Calm - N/A   Clear
7:16 PM -2.2 °F - -16.6 °F 50% 29.67 in 7.0 mi Calm Calm - N/A   Scattered Clouds
7:36 PM -2.2 °F - - N/A% 29.68 in 7.0 mi Calm Calm - N/A   Mostly Cloudy
7:56 PM -2.2 °F - -7.6 °F 78% 29.68 in 10.0 mi Calm Calm - N/A   Scattered Clouds
8:16 PM -2.2 °F - -22.0 °F 39% 29.68 in 10.0 mi Calm Calm - N/A   Mostly Cloudy
8:36 PM -2.2 °F - -2.2 °F 100% 29.68 in 7.0 mi Calm Calm - N/A   Mostly Cloudy
8:56 PM -2.2 °F - -2.2 °F 100% 29.69 in 9.0 mi Calm Calm - N/A   Overcast
9:16 PM -2.2 °F -12.5 °F -23.8 °F 35% 29.69 in 7.0 mi North 4.6 mph - N/A   Overcast
9:36 PM -0.4 °F -10.4 °F -7.6 °F 72% 29.69 in 7.0 mi NNE 4.6 mph - N/A   Overcast
9:56 PM -2.2 °F - - N/A% 29.70 in 5.0 mi Calm Calm - N/A   Overcast
10:16 PM -2.2 °F - -14.8 °F 55% 29.70 in 5.0 mi Calm Calm - N/A   Overcast
10:36 PM -2.2 °F - -22.0 °F 39% 29.71 in 5.0 mi Calm Calm - N/A   Overcast
10:56 PM -2.2 °F - -2.2 °F 100% 29.71 in 5.0 mi Calm Calm - N/A   Overcast
11:16 PM -2.2 °F - -2.2 °F 100% 29.72 in 3.0 mi Calm Calm - N/A   Overcast
11:36 PM -2.2 °F -10.4 °F -20.2 °F 42% 29.72 in 4.0 mi NE 3.5 mph - N/A   Overcast
11:56 PM -0.4 °F -8.3 °F -16.6 °F 46% 29.72 in 4.0 mi ENE 3.5 mph - N/A   Overcast